Current Weather Conditions: station 63115

sailwx.info

Last reported at 2014-Oct-31 23:33 UTC.
Time now 2014-Oct-31 23:45 UTC

Location: N 61°36' E 001°18'.
View on Google Maps.

See reports from other nearby stations

  
Tides and Currents Weather Stations Pressure Air Temp Water Temp Dewpoint Dewpoint Depression Visibility Wind Speed Wind Dir Waves Ship Positions
date/time (UTC)wind fromknots sea level pressurealtimeterstation pressurevisibilityair tempwater tempwave heightnotes
2014-Oct-31 19:00 150 23 1.112.3 3.4
2014-Oct-31 18:00 150 22 0.512.2 3.2
2014-Oct-31 17:00 160 22 0.312.2 3.1
2014-Oct-31 16:00 160 22 0.312.3 3.1
2014-Oct-31 15:00 160 22 0.512.2 3.0
2014-Oct-31 14:00 140 20 1.111.9 2.8
2014-Oct-31 13:00 120 23 2.210.4 3.2
2014-Oct-31 12:00 120 25 1.110.1 3.1
2014-Oct-31 11:00 110 25 2.2 9.6 3.2
2014-Oct-31 10:00 110 25 2.2 9.4 2.8
2014-Oct-31 09:00 100 25 2.2 9.1 3.1
2014-Oct-31 08:00 100 24 1.1 9.1 3.1
2014-Oct-31 07:00 100 23 2.2 9.1 3.2
2014-Oct-31 06:00 100 23 2.2 9.2 3.1
2014-Oct-31 05:00 100 23 10.8 9.6 2.8
2014-Oct-31 04:00 110 22 10.8 9.6 3.0
2014-Oct-31 03:00 110 20 10.8 9.6 2.8
2014-Oct-31 02:00 120 18 10.8 9.4 2.8
2014-Oct-31 01:00 120 19 10.8 9.5 2.6
2014-Oct-31 00:00 120 17 2.2 9.6 2.3
2014-Oct-30 23:00 120 16 10.8 9.6 2.4
2014-Oct-30 22:00 120 17 10.8 9.5 2.4
2014-Oct-30 21:00 120 14 10.8 9.4 2.4
2014-Oct-30 20:00 120 12 10.8 9.4 2.6
2014-Oct-30 19:00 120 11 10.8 9.3 2.4
2014-Oct-30 18:00 130 10 10.8 9.4 2.5
2014-Oct-30 17:00 130 12 10.8 9.7 2.4
2014-Oct-30 16:00 120 11 10.8 9.4 2.7
2014-Oct-30 15:00 110 11 10.8 9.3 2.5
2014-Oct-30 14:00 120 9 5.4 9.2 2.6
2014-Oct-30 13:00 100 9 10.8 8.8 2.7
2014-Oct-30 12:00 100 8 10.8 8.6 2.7
2014-Oct-30 11:00 120 6 10.8 8.4 2.7
2014-Oct-30 10:00 130 5 10.8 8.2 2.9
2014-Oct-30 09:00 130 3 10.8 8.0 2.8
2014-Oct-30 08:00 160 2 10.8 7.7 3.1
2014-Oct-30 07:00 250 2 10.8 7.1 2.8
2014-Oct-30 06:00 280 4 10.8 7.0 2.8
2014-Oct-30 05:00 280 6 10.8 6.9 3.0
2014-Oct-30 04:00 300 8 10.8 6.6 2.8
2014-Oct-30 03:00 260 10 10.8 6.9 2.8
2014-Oct-30 02:00 260 11 10.8 6.7 2.8
2014-Oct-30 01:00 290 15 10.8 6.9 2.6
2014-Oct-30 00:00 300 14 10.8 6.3 2.9
2014-Oct-29 23:00 260 14 10.8 6.7 3.0